Retour au catalogue

STARLINK-31756

ActifCommunicationsVLEO
NORAD 61517·PAYLOAD·🇺🇸 United States

Lancé Oct 15, 2024 depuis Cape Canaveral Space Force Station

Loading…

Prochains Passages (prochaines 24 heures)

TLE

FraisSource: CelesTrak SupGP

Époque: Sep 15, 2026, 02:11 UTC

1 61517C 24183J   26258.09145833  .00066748  00000+0  19717-2 0  2589
2 61517  53.1590 340.6426 0001045  88.4851 102.3669 15.34363556    13

Suivez STARLINK-31756 en temps réel avec AllMySat

Download on the App Store